Location: Niagara
(43.2500°N, 79.0670°W)
Time: 11:39:14
(UTC-04:00)

Vanguard 2 - Visible Passes

Search period start: 21 October 2017 00:00
Search period end: 31 October 2017 00:00
Orbit: 554 x 2939 km, 32.9° (Epoch: 20 October)

Date Brightness Start Highest point End Pass type
(mag) Time Alt. Az. Time Alt. Az. Time Alt. Az.
21 Oct 11.8 07:01:55 10° SSW 07:13:51 24° SSE 07:23:21 10° ESE visible
22 Oct 12.1 05:16:49 10° SSE 05:21:40 12° SE 05:26:16 10° ESE visible
23 Oct 11.9 05:29:53 10° S 05:39:30 17° SE 05:48:08 10° ESE visible
24 Oct 11.7 05:45:09 10° S 05:57:21 23° SE 06:07:57 10° E visible
25 Oct 11.5 06:01:19 10° SSW 06:15:13 29° SSE 06:27:01 10° E visible
26 Oct 11.9 04:14:40 10° SSE 04:22:55 15° SE 04:30:56 10° ESE visible
26 Oct 11.3 06:18:02 10° SSW 06:33:07 36° SSE 06:45:41 10° E visible
27 Oct 11.7 04:29:18 10° S 04:40:36 21° SE 04:51:26 10° E visible
27 Oct 11.2 06:35:10 10° SW 06:51:05 42° SSE 07:04:09 10° E visible
28 Oct 11.5 04:45:07 10° SSW 04:58:17 27° SE 05:10:52 10° E visible
28 Oct 11.0 06:52:35 10° SW 07:09:06 47° SSE 07:22:25 10° E visible
29 Oct 11.8 03:01:42 10° SSE 03:06:25 12° SE 03:11:13 10° ESE visible
29 Oct 11.3 05:01:37 10° SSW 05:16:03 33° SSE 05:29:45 10° E visible
29 Oct 10.9 07:10:15 10° SW 07:27:09 52° SSE 07:40:37 10° E visible
30 Oct 11.6 03:17:03 13° SSE 03:23:54 17° SE 03:33:29 10° ESE visible
30 Oct 11.1 05:18:33 10° SSW 05:33:52 40° SSE 05:48:20 10° E visible
